Weather in Pervomayskoye

Russia / Karachay-Cherkess Republic     43°56′17″N   42°28′53″E
temp.,
°C
wind,
m/s
gust,
m/s
humid.,
%
clouds,
%
prec.,
mm/h
press.,
hPa
HPBL,
m
4 july, mon
mon400:00+10ssw337812 0.0 101832
03:00+10ssw337011 0.0 101829
06:00+11ssw33735 0.0 101845
09:00+17nne11540 0.0 10171266
12:00+19ne215028 0.0 10171900
15:00+20ne21487 0.0 10161869
18:00+19nne116414 0.0 10161362
21:00+13ssw22730 0.0 101712
5 july, tue
tue500:00+12ssw33730 0.0 101723
03:00+12ssw33700 0.0 101724
06:00+13ssw32740 0.0 101734
09:00+20nne11540 0.0 1016745
12:00+21ne22481 0.0 10161868
15:00+23ene124723 0.0 10152117
18:00+21n247069 0.0 1015213
21:00+17ese116787 0.1 101611
6 july, wed
wed600:00+15sse22690 0.0 101616
03:00+12sse32780 0.0 101619
06:00+13sse22780 0.0 101644
09:00+18e710660 0.0 1015869
12:00+20e911604 0.0 10151316
15:00+21ese8106121 0.0 10131516
18:00+19ese712680 0.0 10131011
21:00+16ese615630 0.0 1015525
7 july, thu
thu700:00+12se49740 0.0 1014198
03:00+12ese48830 0.0 1013182
06:00+13ese36850 0.0 1014194
09:00+18e68730 0.0 1012577
12:00+19e911730 0.0 1012666
15:00+21ese1011670 0.0 1011824
18:00+20ese912740 0.1 1011850
21:00+16ese712700 0.1 1012482
8 july, fri
fri800:00+12se33880 0.0 101255
03:00+12se22860 0.0 101117
06:00+15se11814 0.0 101244
09:00+19ene32723 0.0 1012448
12:00+22ene436615 0.1 10111009
15:00+22e6666100 0.2 10111086
18:00+20ese5877100 0.0 1011535
21:00+16se2287100 0.1 101221